Volver al catálogo

SCOUT G-1 DEB

ActivoPO
NORAD 18562·DEBRIS·🇺🇸 United States

Lanzado Sep 16, 1987 desde Vandenberg Space Force Base

Loading…

Próximos Pases (próximas 24 horas)

TLE

ActualizadoSource: Space-Track

Época: Sep 14, 2026, 04:09 UTC

1 18562U 87080H   26257.17313766  .00000198  00000-0  31765-3 0  9994
2 18562  89.8966 153.4044 0177897 263.1623 253.3488 13.40164458902452

Sigue SCOUT G-1 DEB en tiempo real con AllMySat

Download on the App Store